Weather in Bibikovo

Russia / Oryol Oblast     53°10′49″N   37°13′46″E
В апреле 2022 года жителям России запретили посещать сайт meteo.paraplan.net по решению Генеральной прокуратуры. Аудитория сайта уменьшилась в 10 раз. Владельцы сайта не видят смысла в поддержке погодного сервера в таких условиях. Сайт будет закрыт в октябре.
temp.,
°C
wind,
m/s
gust,
m/s
humid.,
%
clouds,
%
prec.,
mm/h
press.,
hPa
HPBL,
m
5 october, wed
wed500:00+7ssw379099 0.2 1012915
03:00+7ssw4893100 1.2 10121098
06:00+6sw6991100 1.4 10131075
09:00+7sw5992100 1.9 1014600
12:00+8w588443 0.4 1016801
15:00+9w587389 0.8 10171222
18:00+7wnw5985100 0.3 1019661
21:00+7w489189 0.4 1020524
6 october, thu
thu600:00+7w499288 0.1 1020499
03:00+5w4998100 0.1 1021295
06:00+7wsw379892 0.1 1021317
09:00+8wsw479397 0.1 1021291
12:00+11wsw568158 0.0 1021625
15:00+12wsw4681100 0.0 1020719
18:00+10sw489217 0.0 1020332
21:00+9sw410950 0.0 1020224
7 october, fri
fri700:00+8wsw4119481 0.0 1020241
03:00+8w4109698 0.0 1020237
06:00+8wnw5129761 0.0 1021353
09:00+10nw61086100 0.0 1022665
12:00+13nw69660 0.0 1024844
15:00+14nw67630 0.0 10241037
18:00+10nnw47850 0.0 1026215
21:00+7wnw36890 0.0 1027140
8 october, sat
sat800:00+7w33915 0.0 102744
03:00+6w23940 0.0 102741
06:00+6wsw33950 0.0 102752
09:00+9sw35875 0.0 1027204
12:00+13sw34695 0.0 1026615
15:00+14ssw4560100 0.0 1024829
18:00+11ssw357772 0.0 102379
21:00+9ssw378164 0.0 1023141
9 october, sun
sun900:00+8ssw41085100 0.0 1022177
03:00+7ssw41086100 0.0 1021191
06:00+7ssw3986100 0.0 1020170
09:00+9ssw41078100 0.0 1019295
12:00+13sw5866100 0.0 1018579
15:00+14sw4668100 0.0 1017891
18:00+11wnw5879100 0.0 1018361
21:00+9wnw3791100 1.1 1020323